Tucson Davis Monthan, AZ

9:34 AM MST on December 12, 2019 (GMT -0700)
Davis-Monthan Air Force Base

Weather History for KDMA - October, 2019

Change the Weather History Date:

Wednesday, October 23, 2019

  Actual Average Record
Temperature  
Mean Temperature 69 °F -  
Max Temperature 86 °F 80 °F 94 °F (2017)
Min Temperature 52 °F 53 °F 42 °F (1969)
Cooling Degree Days 4    
Growing Degree Days 19 (Base 50)    
Moisture  
Dew Point 26 °F    
Average Humidity 22    
Maximum Humidity 35    
Minimum Humidity 9    
Precipitation  
Precipitation 0.00 in - - ()
Sea Level Pressure  
Sea Level Pressure 29.86 in    
Wind  
Wind Speed 6 mph (South)    
Max Wind Speed 14 mph    
Max Gust Speed -    
Visibility 10 miles    
Events      
Averages and records for this station are not official NWS values.
T = Trace of Precipitation, MM = Missing Value Source: NWS Daily Summary

Daily Weather History Graph

Daily Weather History Graph

Search for Another Location

Airport or City:

Astronomy

Oct. 23, 2019 Rise Set
Actual Time 6:32 AM MST 5:42 PM MST
Civil Twilight 6:08 AM MST 6:07 PM MST
Nautical Twilight 5:39 AM MST 6:35 PM MST
Astronomical Twilight 5:10 AM MST 7:04 PM MST
Moon 1:21 AM MST (10/23) 3:12 PM MST (10/23)
Length of Visible Light 11h 59m
Length of Day
11h 09m
Waning Crescent, 25% of the Moon is Illuminated
Oct 23
Waning Crescent
Oct 27
New
Nov 4
First Quarter
Nov 12
Full
Nov 19
Last Quarter

Hourly Weather History & Observations

Time (MST) Temp. Dew Point Humidity Pressure Visibility Wind Dir Wind Speed Gust Speed Precip Events Conditions
12:56 AM 57.6 °F 25.5 °F 29% 29.93 in 10.0 mi ESE 9.2 mph - N/A   Clear
1:58 AM 57.0 °F 25.0 °F 29% 29.91 in 10.0 mi SSE 5.8 mph - N/A   Clear
2:58 AM 54.5 °F 24.4 °F 31% 29.90 in 10.0 mi SSE 5.8 mph - N/A   Clear
3:58 AM 53.4 °F 25.0 °F 33% 29.88 in 10.0 mi SSE 6.9 mph - N/A   Clear
4:58 AM 53.1 °F 25.3 °F 34% 29.88 in 10.0 mi SE 3.5 mph - N/A   Clear
5:58 AM 52.2 °F 25.3 °F 35% 29.91 in 10.0 mi SSE 6.9 mph - N/A   Clear
6:58 AM 54.9 °F 24.8 °F 31% 29.91 in 10.0 mi South 9.2 mph - N/A   Clear
7:58 AM 62.6 °F 26.2 °F 25% 29.91 in 10.0 mi SSE 6.9 mph - N/A   Clear
8:58 AM 68.2 °F 28.9 °F 23% 29.92 in 10.0 mi South 5.8 mph - N/A   Clear
9:58 AM 72.9 °F 26.8 °F 18% 29.92 in 10.0 mi Calm Calm - N/A   Clear
10:58 AM 76.8 °F 28.8 °F 17% 29.91 in 10.0 mi Calm Calm - N/A   Clear
11:58 AM 80.6 °F 27.0 °F 14% 29.87 in 10.0 mi NNE 3.5 mph - N/A   Clear
12:58 PM 83.7 °F 23.5 °F 11% 29.93 in 10.0 mi NNE 3.5 mph - N/A   Clear
1:58 PM 85.6 °F 22.8 °F 10% 29.80 in 10.0 mi West 5.8 mph - N/A   Clear
2:58 PM 86.5 °F 21.0 °F 9% 29.79 in 10.0 mi Calm Calm - N/A   Clear
3:58 PM 86.7 °F 23.5 °F 10% 29.79 in 10.0 mi NNW 13.8 mph - N/A   Clear
4:58 PM 84.4 °F 21.9 °F 10% 29.79 in 10.0 mi NNW 13.8 mph - N/A   Clear
5:58 PM 77.9 °F 26.4 °F 15% 29.79 in 10.0 mi NNW 8.1 mph - N/A   Clear
6:58 PM 73.0 °F 27.0 °F 18% 29.82 in 10.0 mi NNW 6.9 mph - N/A   Clear
7:58 PM 72.0 °F 27.5 °F 19% 29.81 in 10.0 mi WNW 3.5 mph - N/A   Clear
8:58 PM 69.4 °F 27.9 °F 21% 29.82 in 10.0 mi WSW 5.8 mph - N/A   Clear
9:58 PM 64.4 °F 26.8 °F 24% 29.84 in 10.0 mi SSW 6.9 mph - N/A   Clear
10:58 PM 61.2 °F 27.0 °F 27% 29.83 in 10.0 mi SSE 6.9 mph - N/A   Clear
11:58 PM 60.3 °F 27.9 °F 29% 29.84 in 10.0 mi East 5.8 mph - N/A   Clear